This demonstration page uses our WeatherBlox Daily Observations layout. Learn more.

Left ArrowRight Arrow

44.31136, -96.79839

Hourly Observations for August 23, 2017

Temp ( °F °C ) Dew Point ( °F °C ) Humidity (%) Winds ( mph kmh ) Pressure ( in mb ) Visibility ( mi km ) Precip ( " mm )
12:56 am 00:56 Clear 56 13.3 52 11.1 87 87 E 3 6 30.18 1022 N/A 0.00 0.00
1:56 am 01:56 Clear 53 11.7 51 10.6 93 93 S 3 6 30.18 1022 N/A 0.00 0.00
2:56 am 02:56 Clear 52 11.1 50 10 93 93 Calm 30.19 1022 N/A 0.00 0.00
3:56 am 03:56 Clear 52 11.1 49 9.4 89 89 Calm 30.19 1022 N/A 0.00 0.00
4:56 am 04:56 Clear 51 10.6 48 8.9 89 89 Calm 30.18 1022 N/A 0.00 0.00
6:56 am 06:56 Sunny 49 9.4 47 8.3 93 93 Calm 30.19 1022 N/A 0.00 0.00
7:56 am 07:56 Sunny 54 12.2 51 10.6 90 90 Calm 30.19 1022 N/A 0.00 0.00
8:56 am 08:56 Mostly Sunny 60 15.6 53 11.7 78 78 SE 3 6 30.19 1022 N/A 0.00 0.00
9:56 am 09:56 Sunny 66 18.9 54 12.2 65 65 SSW 6 9 30.18 1022 N/A 0.00 0.00
10:56 am 10:56 Mostly Cloudy 69 20.6 51 10.6 53 53 S 7 11 30.17 1022 N/A 0.00 0.00
11:56 am 11:56 Mostly Sunny 73 22.8 50 10 44 44 S 8 13 30.15 1021 N/A 0.00 0.00
12:56 pm 12:56 Mostly Sunny 74 23.3 53 11.7 48 48 SSW 8 13 30.13 1020 N/A 0.00 0.00
1:56 pm 13:56 Sunny 74 23.3 55 12.8 52 52 SSE 13 20 30.11 1020 N/A 0.00 0.00
2:56 pm 14:56 Sunny 75 23.9 56 13.3 52 52 SSE 13 20 30.09 1019 N/A 0.00 0.00
3:56 pm 15:56 Sunny 75 23.9 58 14.4 55 55 S 13 20 30.07 1018 N/A 0.00 0.00
4:04 pm 16:04 Partly Cloudy 75 24 55 13 50 50 SSE 10 17 29.97 1015 N/A 0.00 0.00
4:56 pm 16:56 Sunny 74 23.3 57 13.9 56 56 SSE 12 19 30.05 1018 N/A 0.00 0.00
5:56 pm 17:56 Partly Cloudy 75 23.9 60 15.6 60 60 SSE 9 15 30.04 1017 N/A 0.00 0.00
6:56 pm 18:56 Mostly Cloudy 72 22.2 59 15 64 64 SSE 12 19 30.04 1017 N/A 0.00 0.00
7:56 pm 19:56 Mostly Cloudy 71 21.7 60 15.6 68 68 SE 9 15 30.03 1017 N/A 0.00 0.00
8:56 pm 20:56 Mostly Cloudy 69 20.6 60 15.6 73 73 SSE 10 17 30.02 1017 N/A 0.00 0.00
9:56 pm 21:56 Mostly Cloudy 67 19.4 60 15.6 79 79 SE 10 17 30.03 1017 N/A 0.00 0.00
10:56 pm 22:56 Mostly Clear 65 18.3 60 15.6 84 84 SE 10 17 30.02 1017 N/A 0.00 0.00
11:56 pm 23:56 Mostly Cloudy 65 18.3 60 15.6 84 84 SE 10 17 30.02 1017 N/A 0.00 0.00

Powered by AerisWeather